DW7764 Weather Reports


Display with metric or nautical units.
time (UTC)temp
F
wind
direction
speed
MPH
gust
MPH
rain 1hr
in
rain 24hr
in
rain mn
in
humidity
%
barometer
mb
20260906213002 72 110 0.0 0.0 0.00 0.00 0.00 85 1025.0
20260906211501 73 110 0.0 1.0 0.00 0.00 0.00 86 1025.1
20260906210001 73 110 0.0 0.0 0.00 0.00 0.00 86 1025.0
20260906204607 74 110 0.0 1.0 0.00 0.00 0.00 85 1025.1
20260906203100 74 110 0.0 0.0 0.00 0.00 0.00 85 1025.1
20260906201559 74 110 0.0 0.0 0.00 0.00 0.00 85 1025.2
20260906200059 75 110 0.0 0.0 0.00 0.00 0.00 83 1025.1
20260906194606 76 110 0.0 1.0 0.00 0.00 0.00 84 1025.0
20260906193058 76 110 0.0 0.0 0.00 0.00 0.00 83 1024.8
20260906191602 77 110 0.0 0.0 0.00 0.00 0.00 82 1024.6
20260906190057 78 110 0.0 0.0 0.00 0.00 0.00 80 1024.4
20260906184556 79 110 0.0 0.0 0.00 0.00 0.00 79 1024.2
20260906183104 80 110 0.0 0.0 0.00 0.00 0.00 77 1024.1
20260906181600 80 110 0.0 2.0 0.00 0.00 0.00 76 1023.9
20260906180117 81 152 1.0 3.0 0.00 0.00 0.00 74 1023.9
20260906174614 81 150 0.0 2.0 0.00 0.00 0.00 72 1023.8
20260906173051 82 136 0.0 4.0 0.00 0.00 0.00 70 1023.9
20260906171608 83 141 2.0 5.0 0.00 0.00 0.00 69 1023.8
20260906170058 83 155 1.0 4.0 0.00 0.00 0.00 67 1023.7
20260906164547 84 124 1.0 3.0 0.00 0.00 0.00 65 1023.6
20260906163046 85 58 0.0 4.0 0.00 0.00 0.00 62 1023.7
20260906161610 86 129 3.0 6.0 0.00 0.00 0.00 59 1023.5
20260906160044 87 136 2.0 9.0 0.00 0.00 0.00 58 1023.5
20260906154548 88 112 2.0 6.0 0.00 0.00 0.00 55 1023.5
20260906153104 90 167 3.0 6.0 0.00 0.00 0.00 52 1023.4
20260906151542 90 130 3.0 5.0 0.00 0.00 0.00 52 1023.4
20260906150041 90 122 3.0 8.0 0.00 0.00 0.00 52 1023.5
20260906144541 91 75 3.0 8.0 0.00 0.00 0.00 51 1023.5
20260906143040 91 123 1.0 7.0 0.00 0.00 0.00 50 1023.6
20260906141550 91 86 0.0 7.0 0.00 0.00 0.00 50 1023.6
20260906140039 91 236 3.0 9.0 0.00 0.00 0.00 47 1023.7
20260906134538 92 215 1.0 6.0 0.00 0.00 0.00 47 1023.8
20260906133043 92 67 3.0 11.0 0.00 0.00 0.00 46 1023.8
20260906131544 91 105 5.0 8.0 0.00 0.00 0.00 46 1024.0
20260906130035 91 94 2.0 9.0 0.00 0.00 0.00 45 1024.1
20260906124533 91 137 6.0 12.0 0.00 0.00 0.00 45 1024.1
20260906123032 91 82 2.0 8.0 0.00 0.00 0.00 45 1024.2
20260906121535 91 77 2.0 8.0 0.00 0.00 0.00 44 1024.3
20260906120028 91 142 5.0 10.0 0.00 0.00 0.00 43 1024.3
20260906114531 92 122 6.0 10.0 0.00 0.00 0.00 41 1024.3
20260906113026 91 145 2.0 7.0 0.00 0.00 0.00 42 1024.4
20260906111529 91 212 2.0 9.0 0.00 0.00 0.00 42 1024.5
20260906110023 91 128 3.0 6.0 0.00 0.00 0.00 42 1024.6
20260906104522 91 142 1.0 7.0 0.00 0.00 0.00 43 1024.7
20260906103022 91 87 2.0 7.0 0.00 0.00 0.00 42 1024.9
20260906101528 90 82 2.0 9.0 0.00 0.00 0.00 42 1024.9
20260906100030 91 91 3.0 7.0 0.00 0.00 0.00 41 1025.0
20260906094518 91 122 1.0 5.0 0.00 0.00 0.00 43 1025.1
20260906093015 88 214 1.0 4.0 0.00 0.00 0.00 45 1025.2
20260906091513 87 70 1.0 5.0 0.00 0.00 0.00 45 1025.2
20260906090012 87 150 0.0 5.0 0.00 0.00 0.00 46 1025.1
20260906084511 87 145 0.0 4.0 0.00 0.00 0.00 46 1025.0
20260906083007 85 125 0.0 5.0 0.00 0.00 0.00 50 1024.9
20260906081503 84 132 0.0 4.0 0.00 0.00 0.00 49 1024.9
20260906080100 83 287 0.0 2.0 0.00 0.00 0.00 51 1024.7
20260906074556 81 287 0.0 0.0 0.00 0.00 0.00 57 1024.7
20260906073051 78 288 0.0 0.0 0.00 0.00 0.00 60 1024.6
20260906071548 75 286 0.0 1.0 0.00 0.00 0.00 66 1024.6
20260906070047 73 287 0.0 0.0 0.00 0.00 0.00 71 1024.6
20260906064546 72 286 0.0 0.0 0.00 0.00 0.00 73 1024.6
20260906063045 71 286 0.0 1.0 0.00 0.00 0.00 73 1024.5
20260906061549 70 287 0.0 0.0 0.00 0.00 0.00 74 1024.2
20260906060053 70 287 0.0 0.0 0.00 0.00 0.00 72 1024.0
20260906054544 72 286 0.0 0.0 0.00 0.00 0.00 67 1023.9
20260906053040 73 287 0.0 0.0 0.00 0.00 0.00 63 1023.6
20260906051539 74 287 0.0 0.0 0.00 0.00 0.00 62 1023.6
20260906050039 73 286 0.0 1.0 0.00 0.00 0.00 62 1023.6
20260906044538 73 286 0.0 3.0 0.00 0.00 0.00 62 1023.5
20260906043037 74 286 0.0 3.0 0.00 0.00 0.00 63 1023.6
20260906041536 74 287 1.0 3.0 0.00 0.00 0.00 62 1023.7
20260906040036 73 287 0.0 0.0 0.00 0.00 0.00 63 1023.7
20260906034551 73 286 0.0 2.0 0.00 0.00 0.00 63 1023.8
20260906033035 74 286 0.0 2.0 0.00 0.00 0.00 63 1023.9
20260906031533 74 286 0.0 2.0 0.00 0.00 0.00 64 1024.0
20260906030031 74 287 0.0 3.0 0.00 0.00 0.00 65 1024.0
20260906024531 74 286 1.0 4.0 0.00 0.00 0.00 66 1024.1
20260906023029 72 128 1.0 2.0 0.00 0.00 0.00 72 1024.1
20260906021531 71 129 1.0 2.0 0.00 0.00 0.00 78 1024.2
20260906020024 72 129 0.0 0.0 0.00 0.00 0.00 76 1024.2
20260906014523 73 128 0.0 2.0 0.00 0.00 0.00 72 1024.2
20260906013023 72 129 0.0 2.0 0.00 0.00 0.00 71 1024.3
20260906011523 73 129 0.0 2.0 0.00 0.00 0.00 74 1024.3
20260906010020 72 128 0.0 0.0 0.00 0.00 0.00 72 1024.4
20260906004518 72 129 0.0 1.0 0.00 0.00 0.00 76 1024.5
20260906003016 73 128 0.0 0.0 0.00 0.00 0.00 80 1024.6
20260906001525 73 128 1.0 2.0 0.00 0.00 0.00 81 1024.7
20260906000012 73 128 0.0 0.0 0.00 0.00 0.00 80 1024.8
20260905234508 73 129 0.0 1.0 0.00 0.00 0.00 78 1024.9
20260905233007 73 129 0.0 0.0 0.00 0.00 0.00 79 1025.0
20260905231512 73 128 0.0 1.0 0.00 0.00 0.00 81 1025.1
20260905230004 74 128 0.0 2.0 0.00 0.00 0.00 82 1025.2
20260905224502 75 129 0.0 0.0 0.00 0.00 0.00 83 1025.2
20260905223059 75 129 0.0 0.0 0.00 0.00 0.00 85 1025.2
20260905221600 75 128 0.0 0.0 0.00 0.00 0.00 86 1025.2
20260905220058 75 128 0.0 1.0 0.00 0.00 0.00 85 1025.2
20260905214555 75 128 0.0 1.0 0.00 0.00 0.00 84 1025.2